ONEWEB-0227, 48792

Orbit data source: Space-Track

ONEWEB-0227, 48792 is a payload satellite owned by One Web (NAA) (UK) in LEO that was launched on Fri, 28 May 2021 UTC via a SOYUZ-2-1B launch vehicle from the Vostochny Cosmodrome (VOSTO). Payload-class satellites include a variety of spacecraft equipped with specific instruments for various scientific and technological missions. These include communications satellites like Starlink; space stations such as the ISS; scientific satellites like the Hubble; Earth observation satellites from companies like Planet Labs, Umbra, and HawkEye 360; GPS; miniature CubeSats for education and research; and military/defense satellites.

Loading next visibility...
Identifier
48792, 2021-045AB
Orbit
LEO
Country
Flag of UKUK
Related business
Manufacturer
One Web
Mission
Operational Commercial Communications
Bus & Motor
ARROW, Unknown motor
Mass
148 kg wet, ~140 kg dry
Launch date (UTC)
2021-05-28 (5 years ago)
Launch vehicle
SOYUZ-2-1B
Launch site
Vostochny Cosmodrome (VOSTO)
Object type
Payload
Rocket body
Debris
Shape & HBR
Trap Box + 2 Pan, 6.7 m
Radar Cross Section
3.464 m², Large (>1 m²)

Expand to show TLE details & history
Last TLE update: 2 days ago

TLE from 2 days ago
0 ONEWEB-0227
1 48792U 21045AB  26171.47957718  .00000105  00000-0  24435-3 0  9994
2 48792  87.9010 258.5327 0001960 103.1059 257.0290 13.15549774244814
Epoch: 2026-06-20T11:30Z
TLE epoch observation values (Epoch: 2026-06-20T11:30:35.468Z)
Latitude
-0.00003°
Longitude
177.19131°
Altitude
1,204.995 km
Speed
7.251 km/s
True Right ascension
17h 14m 07s
True Declination
0° 00' 00"
Sunlit
Object was in full shadow at epoch
Visualization orbit readout
Latitude
Unknown
Longitude
Unknown
Altitude
Unknown
Speed
Unknown
Apparent Right ascension
Unknown
Apparent Declination
Unknown
Sunlit
N/A
Visualization observer readout
Local Sidereal Time
21:35:27
Azimuth
Unknown
Elevation
Unknown
Doppler factor
Unknown
Orbital elements
Apogee altitude
1,200.363 km
Perigee altitude
1,197.393 km
Semi-major axis
7,577.015 km
Eccentricity
0.0002
Inclination
87.901°
RAAN
258.5327°
Arg. of periapsis
103.1059°
True anomaly
257.00711°
Mean anomaly
257.029°
Eccentric anomaly
257.01806°
Mean motion
3.29076 °/min
Orbital period
109.4 mins
BSTAR
0.00024435
Loading maneuver chart data...
Computing Atmospheric mass density...
Loading historical data...
Loading historical data...
Loading historical data...
Loading historical data...
Loading historical data...
Loading historical data...
Loading historical data...

Documentation

Showing up to 5 results
|